Vorticity
5 14 5 6 9 8 8 12 14 13 9 8 13 15 13 6 8 11 11 8 9 10
9 13 9 6 7 7 9 7 7 8 8 9 11 10 6 5 10 8 8 9 10 10
11 11 8 8 8 11 8 7 5 8 8 12 9 11 6 12 9 8 10 9 9 8
9 11 11 11 9 11 11 9 7 11 9 10 12 4 11 9 9 10 9 9 8 6
7 5 6 6 7 8 9 7 12 13 5 12 3 10 8 7 10 9 9 8 6 5
10 11 8 10 14 15 10 4 9 21 15 2 8 10 7 9 8 8 9 7 6 4
17 19 19 18 13 8 6 32 6 11 3 7 11 7 9 9 7 10 7 5 4 5
14 11 9 9 11 11 9 20 12 5 7 11 6 9 10 7 8 7 5 4 3 4
10 10 12 11 10 9 13 7 4 7 11 7 10 10 7 8 8 6 4 4 3 4
-1 -1 13 12 13 15 13 7 7 12 8 10 10 8 8 8 6 5 4 4 4 5
6 7 4 11 13 11 8 7 12 8 9 8 8 8 8 7 5 4 4 3 3 5
8 14 5 9 8 7 7 9 10 9 7 7 8 7 7 6 5 4 3 3 3 6
14 7 6 7 6 6 7 11 8 9 7 7 8 7 6 6 4 3 3 2 4 6
13 11 11 7 6 6 8 10 8 9 7 7 8 6 6 5 4 4 4 3 4 6
Height
5783 5784 5784 5784 5784 5784 5785 5785 5785 5784 5783 5782 5781 5781 5781 5781 5781 5779 5777 5776 5774 5772
5776 5776 5777 5778 5779 5779 5779 5779 5779 5779 5779 5778 5778 5778 5778 5777 5775 5774 5773 5771 5770 5768
5769 5770 5770 5772 5772 5774 5774 5774 5775 5774 5774 5774 5774 5774 5774 5773 5772 5770 5770 5768 5767 5765
5763 5764 5765 5766 5766 5767 5768 5769 5770 5770 5770 5771 5770 5770 5769 5769 5768 5767 5766 5765 5764 5762
5758 5759 5760 5761 5762 5762 5763 5764 5764 5765 5766 5766 5766 5766 5765 5765 5764 5764 5763 5762 5760 5758
5752 5753 5754 5755 5756 5757 5758 5758 5759 5760 5761 5762 5762 5761 5761 5761 5761 5760 5759 5758 5756 5754
5746 5747 5749 5750 5751 5752 5753 5752 5753 5755 5756 5758 5758 5758 5758 5758 5757 5756 5755 5754 5753 5751
5742 5744 5745 5746 5747 5748 5749 5749 5750 5752 5754 5754 5755 5755 5754 5754 5753 5753 5752 5751 5749 5745
5739 5741 5741 5742 5743 5744 5745 5747 5749 5749 5750 5750 5751 5750 5750 5750 5750 5749 5749 5747 5745 5741
5736 5737 5738 5738 5739 5740 5742 5744 5745 5745 5746 5746 5746 5746 5747 5747 5746 5746 5745 5743 5741 5737
5731 5732 5734 5734 5735 5737 5738 5739 5740 5741 5741 5741 5742 5743 5743 5743 5743 5742 5740 5738 5736 5732
5725 5727 5729 5730 5731 5733 5733 5735 5736 5736 5737 5737 5738 5738 5739 5739 5738 5737 5735 5733 5731 5727
5719 5721 5723 5724 5726 5728 5729 5730 5731 5732 5733 5733 5734 5734 5734 5734 5734 5732 5731 5727 5725 5722
5713 5714 5716 5719 5721 5723 5724 5725 5726 5728 5728 5728 5729 5729 5730 5729 5728 5727 5726 5722 5719 5715